Flag for Austria Weather past 2 weeks in Graz, Styria, Austria

Now
64 °F

Light rain. Partly sunny.


Feels Like: 64 °F
Forecast: 56 / 80 °F
Wind: 1 mph from North

Location: Graz-Thalerhof-Flughafen

Current Time: Aug 2, 2015 at 9:20:15 AM

Latest Report: Aug 2, 2015 at 8:50 AM


Visibility: N/A

Pressure: 30.04 "Hg

Humidity: 88%

Dew point: 61 °F

Location of GrazLocation

Historic Weather in Graz — Graph

°F

Graz temperature yesterday

Maximum temperature yesterday: 75 °F (at 2:50 PM)
Minimum temperature yesterday: 48 °F (at 4:50 AM)
Average temperature yesterday: 65 °F

Past Weeks' High & Low Weather Summary

 TemperatureHumidityPressure
High93 °F (Jul 19, 4:50 PM)100% (Jul 19, 5:50 AM)30.09 "Hg (Jul 19, 5:50 AM)
Low48 °F (Aug 1, 4:50 AM)38% (Jul 31, 3:50 PM)29.77 "Hg (Jul 25, 4:50 AM)
Average70 °F78%29.95 "Hg
* Reported Jul 18 7:20 AM — Aug 2 7:50 AM, Graz, Weather by CustomWeather, © 2015

Note: Actual official high and low records may vary slightly from our data, if they occured in-between our weather recording intervals... More about our weather records

Advertising

Graz weather history for previous 24 hours

 ConditionsComfort  
Time TempWeatherWind HumidityBarometerVisibility
7:50 AM
Sun, Aug 2
64 °FPartly sunny.1 mph94%30.04 "HgN/A
7:20 AM64 °FPartly sunny.1 mph88%30.04 "HgN/A
6:50 AM63 °FBroken clouds.1 mph94%30.04 "HgN/A
6:20 AM63 °FFog.1 mph94%30.01 "Hg5 mi
5:20 AM63 °FClear.1 mph94%30.01 "Hg10 mi
4:50 AM63 °FPartly cloudy.2 mph100%30.04 "Hg4 mi
4:20 AM63 °FLight rain. Passing clouds.2 mph94%30.01 "HgN/A
3:50 AM63 °FLight rain. Passing clouds.3 mph94%30.04 "HgN/A
3:20 AM64 °FLight rain. Partly cloudy.2 mph88%30.04 "HgN/A
2:50 AM66 °FClear.2 mph78%30.04 "Hg10 mi
2:20 AM64 °FClear.2 mph83%30.04 "Hg10 mi
1:50 AM64 °FClear.5 mph88%30.04 "Hg10 mi
1:20 AM64 °FClear.2 mph83%30.04 "Hg10 mi
12:50 AM66 °FClear.2 mph78%30.04 "Hg10 mi
11:50 PM
Sat, Aug 1
66 °FPassing clouds.5 mph83%30.04 "HgN/A
11:20 PM66 °FPassing clouds.5 mph78%30.04 "HgN/A
10:50 PM66 °FPassing clouds.5 mph78%30.04 "HgN/A
10:20 PM66 °FPassing clouds.1 mph78%30.04 "HgN/A
9:50 PM66 °FPassing clouds.2 mph73%30.04 "HgN/A
9:20 PM68 °FPartly sunny.5 mph73%30.01 "HgN/A
8:50 PM68 °FPartly sunny.5 mph73%30.01 "HgN/A
8:20 PM70 °FPartly sunny.5 mph64%30.01 "HgN/A
7:50 PM70 °FPartly sunny.6 mph69%30.01 "HgN/A
7:20 PM72 °FPartly sunny.5 mph65%30.01 "HgN/A
6:50 PM72 °FPartly sunny.7 mph61%30.01 "HgN/A
6:20 PM73 °FPartly sunny.6 mph57%30.01 "HgN/A
5:50 PM75 °FScattered clouds.8 mph50%30.01 "HgN/A
5:20 PM75 °FScattered clouds.8 mph54%30.01 "HgN/A
4:50 PM75 °FScattered clouds.8 mph50%30.01 "HgN/A
4:20 PM75 °FScattered clouds.7 mph44%30.01 "HgN/A
3:50 PM75 °FScattered clouds.6 mph44%30.01 "HgN/A
3:20 PM75 °FScattered clouds.6 mph47%30.04 "HgN/A
2:50 PM75 °FScattered clouds.7 mph47%30.04 "HgN/A
2:20 PM73 °FScattered clouds.8 mph50%30.04 "HgN/A
1:50 PM73 °FScattered clouds.9 mph47%30.04 "HgN/A
1:20 PM73 °FScattered clouds.7 mph47%30.04 "HgN/A
12:50 PM73 °FScattered clouds.8 mph47%30.07 "HgN/A
12:20 PM72 °FScattered clouds.7 mph50%30.07 "HgN/A
11:50 AM72 °FScattered clouds.9 mph47%30.07 "HgN/A
11:20 AM72 °FScattered clouds.9 mph50%30.07 "HgN/A
10:50 AM70 °FPartly sunny.5 mph50%30.07 "HgN/A
10:20 AM68 °FScattered clouds.3 mph56%30.07 "HgN/A
9:50 AM64 °FScattered clouds.2 mph68%30.07 "HgN/A
9:20 AM64 °FSunny.1 mph68%30.09 "Hg10 mi
Weather by CustomWeather, © 2015

See weather overviewHow to use our weather pages